BBC305 VGHS-LIRF

Flight info

Callsign BBC305
Flight time N/A
Altitude 34000
Route IDLOX2 IDLOX G463 RAJ A201 MONDA G463 IPLAS Z2 JAL M890 CHG W36 LAKET M890 SULOM A466 PATNI/N0500F360 A466 SITAX M875 TAPIS P173 DAVET B475 NINOP A909 RODAR N644 BADIR/N0492F380 N644 TETRO M10 SARPI UM10 TIVUG UL852 NEGEM DCT LUKOV DCT RESLA DCT DOLAP DCT BAJUN DCT BUNEX DCT NERRA DCT KATTI/N0502F330 DCT ERPOG DCT ESODU/N0438F190 Z924 MOPUV MOPUV3A
Aircraft B789/H-SDE1E2E3FGHIJ2J3J4J5M1RWXY/LB1D1

Departure

Time 2026-05-09 01:16
Airport Hazrat Shahjalal International Airport (VGHS)

Arrival

Time N/A
Airport Rome–Fiumicino Leonardo da Vinci International Airport (LIRF)
Time Latitude Longitude Altitude Speed Heading
2026-05-09 01:05 23.84626 90.40510 41 ft 0 kts 54°
2026-05-09 01:07 23.84624 90.40508 41 ft 1 kts 54°
2026-05-09 01:08 23.84614 90.40492 40 ft 3 kts 54°
2026-05-09 01:08 23.84602 90.40474 41 ft 3 kts 54°
2026-05-09 01:08 23.84593 90.40461 39 ft 2 kts 59°
2026-05-09 01:08 23.84588 90.40445 41 ft 3 kts 110°
2026-05-09 01:09 23.84598 90.40427 36 ft 3 kts 136°
2026-05-09 01:09 23.84607 90.40417 40 ft 0 kts 143°
2026-05-09 01:09 23.84608 90.40417 40 ft 0 kts 143°
2026-05-09 01:10 23.84586 90.40435 41 ft 5 kts 143°
2026-05-09 01:11 23.84524 90.40486 41 ft 13 kts 143°
2026-05-09 01:11 23.84452 90.40544 41 ft 13 kts 144°
2026-05-09 01:11 23.84378 90.40602 39 ft 13 kts 146°
2026-05-09 01:11 23.84330 90.40600 41 ft 8 kts 224°
2026-05-09 01:12 23.84274 90.40529 41 ft 12 kts 212°
2026-05-09 01:12 23.84195 90.40558 41 ft 17 kts 143°
2026-05-09 01:12 23.84094 90.40639 41 ft 18 kts 144°
2026-05-09 01:12 23.83993 90.40719 41 ft 18 kts 144°
2026-05-09 01:13 23.83885 90.40804 41 ft 24 kts 144°
2026-05-09 01:13 23.83724 90.40932 41 ft 30 kts 144°
2026-05-09 01:13 23.83561 90.41062 41 ft 29 kts 143°
2026-05-09 01:13 23.83450 90.41102 41 ft 12 kts 222°
2026-05-09 01:14 23.83383 90.41009 41 ft 18 kts 232°
2026-05-09 01:14 23.83299 90.40887 41 ft 21 kts 233°
2026-05-09 01:14 23.83217 90.40762 42 ft 20 kts 241°
2026-05-09 01:14 23.83239 90.40651 42 ft 7 kts 324°
2026-05-09 01:15 23.83242 90.40649 42 ft 1 kts 324°
2026-05-09 01:15 23.83275 90.40622 42 ft 29 kts 323°
2026-05-09 01:15 23.83657 90.40317 44 ft 105 kts 324°
2026-05-09 01:15 23.84436 90.39700 42 ft 169 kts 324°
2026-05-09 01:16 23.85450 90.38878 558 ft 179 kts 322°
2026-05-09 01:16 23.86390 90.37986 1154 ft 188 kts 312°
2026-05-09 01:16 23.86550 90.37756 1177 ft 194 kts 306°
2026-05-09 01:17 23.86817 90.34576 1942 ft 228 kts 272°
2026-05-09 01:17 23.86998 90.32800 2534 ft 241 kts 278°
2026-05-09 01:17 23.87266 90.30945 3137 ft 253 kts 278°
2026-05-09 01:17 23.87511 90.29011 3830 ft 260 kts 277°
2026-05-09 01:18 23.87733 90.27048 4683 ft 261 kts 277°
2026-05-09 01:18 23.87963 90.25066 5457 ft 265 kts 277°
2026-05-09 01:18 23.88398 90.23095 6137 ft 271 kts 292°
2026-05-09 01:18 23.89090 90.21197 6829 ft 271 kts 289°
2026-05-09 01:19 23.89713 90.19226 7428 ft 275 kts 287°
2026-05-09 01:19 23.90340 90.17246 8088 ft 277 kts 288°
2026-05-09 01:19 23.90988 90.15283 8802 ft 279 kts 288°
2026-05-09 01:19 23.91651 90.13286 9499 ft 282 kts 288°
2026-05-09 01:20 23.92317 90.11259 10109 ft 285 kts 287°
2026-05-09 01:20 23.92993 90.09184 10455 ft 297 kts 287°
2026-05-09 01:20 23.93708 90.06994 10714 ft 313 kts 287°
2026-05-09 01:20 23.94461 90.04700 10989 ft 328 kts 288°
2026-05-09 01:21 23.95247 90.02302 11262 ft 342 kts 288°
2026-05-09 01:21 23.96066 89.99797 11533 ft 357 kts 288°
2026-05-09 01:21 23.96975 89.97228 11886 ft 367 kts 291°
2026-05-09 01:21 23.97944 89.94632 12453 ft 369 kts 289°
2026-05-09 01:22 23.98860 89.91992 13076 ft 372 kts 289°
2026-05-09 01:22 23.99795 89.89382 13674 ft 375 kts 290°
2026-05-09 01:22 24.00781 89.86727 14221 ft 378 kts 290°
2026-05-09 01:22 24.01767 89.84049 14743 ft 381 kts 289°
2026-05-09 01:23 24.02745 89.81344 15268 ft 384 kts 289°
2026-05-09 01:23 24.03730 89.78616 15782 ft 387 kts 289°
2026-05-09 01:23 24.04729 89.75871 16282 ft 390 kts 289°
2026-05-09 01:23 24.05740 89.73097 16784 ft 394 kts 289°
2026-05-09 01:24 24.06752 89.70306 17275 ft 397 kts 289°
2026-05-09 01:24 24.07772 89.67487 17800 ft 399 kts 289°
2026-05-09 01:24 24.08801 89.64648 18301 ft 402 kts 289°
2026-05-09 01:24 24.09835 89.61795 18714 ft 404 kts 289°
2026-05-09 01:25 24.10872 89.58930 19132 ft 407 kts 289°
2026-05-09 01:25 24.11917 89.56034 19578 ft 408 kts 288°
2026-05-09 01:25 24.12889 89.53112 19960 ft 411 kts 288°
2026-05-09 01:25 24.13896 89.50215 20397 ft 413 kts 288°
2026-05-09 01:26 24.14925 89.47272 20810 ft 415 kts 288°
2026-05-09 01:26 24.15937 89.44299 21219 ft 417 kts 287°
2026-05-09 01:26 24.16944 89.41309 21630 ft 420 kts 287°
2026-05-09 01:26 24.17970 89.38300 22032 ft 422 kts 287°
2026-05-09 01:27 24.19003 89.35288 22418 ft 424 kts 287°
2026-05-09 01:27 24.20039 89.32250 22808 ft 426 kts 287°
2026-05-09 01:27 24.21073 89.29201 23196 ft 428 kts 287°
2026-05-09 01:27 24.22116 89.26128 23557 ft 431 kts 287°
2026-05-09 01:28 24.23163 89.23051 23867 ft 432 kts 287°
2026-05-09 01:28 24.24211 89.19968 24244 ft 432 kts 287°
2026-05-09 01:28 24.25261 89.16872 24570 ft 433 kts 287°
2026-05-09 01:28 24.26309 89.13775 24869 ft 435 kts 287°
2026-05-09 01:29 24.27365 89.10658 25169 ft 437 kts 286°
2026-05-09 01:29 24.28424 89.07531 25464 ft 438 kts 286°
2026-05-09 01:29 24.29483 89.04398 25758 ft 440 kts 286°
2026-05-09 01:29 24.30550 89.01241 26061 ft 442 kts 286°
2026-05-09 01:30 24.31604 88.98118 26352 ft 443 kts 286°
2026-05-09 01:30 24.32675 88.94945 26649 ft 445 kts 286°
2026-05-09 01:30 24.33752 88.91750 26934 ft 447 kts 286°
2026-05-09 01:30 24.34832 88.88543 27225 ft 449 kts 285°
2026-05-09 01:31 24.35913 88.85330 27520 ft 451 kts 285°
2026-05-09 01:31 24.37001 88.82098 27798 ft 452 kts 285°
2026-05-09 01:31 24.38091 88.78854 28084 ft 454 kts 285°
2026-05-09 01:31 24.39184 88.75599 28438 ft 455 kts 285°
2026-05-09 01:32 24.40278 88.72338 28742 ft 456 kts 285°
2026-05-09 01:32 24.41375 88.69066 29025 ft 458 kts 285°
2026-05-09 01:32 24.42475 88.65780 29292 ft 460 kts 285°
2026-05-09 01:32 24.43582 88.62474 29574 ft 461 kts 285°
2026-05-09 01:33 24.44867 88.59226 29792 ft 467 kts 290°
2026-05-09 01:33 24.46248 88.55993 30048 ft 468 kts 289°
2026-05-09 01:33 24.47602 88.52743 30278 ft 469 kts 289°
2026-05-09 01:33 24.48962 88.49477 30522 ft 470 kts 289°
2026-05-09 01:34 24.50320 88.46256 30771 ft 472 kts 289°
2026-05-09 01:34 24.51705 88.42983 31009 ft 473 kts 289°
2026-05-09 01:34 24.53080 88.39706 31270 ft 473 kts 289°
2026-05-09 01:34 24.54452 88.36423 31587 ft 472 kts 289°
2026-05-09 01:35 24.55823 88.33151 31927 ft 471 kts 288°
2026-05-09 01:35 24.57191 88.29891 32285 ft 469 kts 288°
2026-05-09 01:35 24.58553 88.26640 32640 ft 467 kts 288°
2026-05-09 01:35 24.59906 88.23399 32996 ft 465 kts 288°
2026-05-09 01:36 24.61251 88.20179 33350 ft 464 kts 288°
2026-05-09 01:36 24.62595 88.16961 33712 ft 462 kts 287°
2026-05-09 01:36 24.63935 88.13753 34049 ft 460 kts 287°
2026-05-09 01:36 24.65267 88.10558 34346 ft 459 kts 287°
2026-05-09 01:37 24.66591 88.07377 34601 ft 458 kts 287°
2026-05-09 01:37 24.67916 88.04194 34817 ft 458 kts 287°
2026-05-09 01:37 24.69240 88.01008 35088 ft 458 kts 287°
2026-05-09 01:37 24.70551 87.97821 35368 ft 456 kts 287°
2026-05-09 01:38 24.71852 87.94639 35644 ft 456 kts 287°
2026-05-09 01:38 24.73154 87.91467 35891 ft 455 kts 287°
2026-05-09 01:38 24.74461 87.88294 36139 ft 455 kts 287°
2026-05-09 01:38 24.75766 87.85119 36357 ft 455 kts 287°
2026-05-09 01:39 24.77048 87.81989 36593 ft 454 kts 287°
2026-05-09 01:39 24.78344 87.78823 36822 ft 454 kts 287°
2026-05-09 01:39 24.79675 87.75669 37041 ft 455 kts 288°
2026-05-09 01:39 24.81046 87.72525 37272 ft 455 kts 288°
2026-05-09 01:40 24.82398 87.69380 37495 ft 454 kts 288°
2026-05-09 01:40 24.83726 87.66220 37669 ft 455 kts 288°
2026-05-09 01:40 24.85058 87.63058 37830 ft 456 kts 288°
2026-05-09 01:40 24.86410 87.59885 37933 ft 459 kts 288°
2026-05-09 01:41 24.89131 87.53490 37931 ft 459 kts 288°
2026-05-09 01:41 24.91815 87.47143 37936 ft 457 kts 288°
2026-05-09 01:42 24.94484 87.40835 37929 ft 457 kts 288°
2026-05-09 01:42 24.97163 87.34490 37922 ft 456 kts 288°
2026-05-09 01:43 24.99402 87.29180 37937 ft 456 kts 288°
2026-05-09 01:43 25.02051 87.22892 37927 ft 454 kts 288°
2026-05-09 01:44 25.04722 87.16542 37928 ft 454 kts 288°
2026-05-09 01:44 25.06927 87.11288 37929 ft 454 kts 288°
2026-05-09 01:45 25.10013 87.03934 37930 ft 454 kts 288°
2026-05-09 01:45 25.12665 86.97600 37933 ft 455 kts 288°
2026-05-09 01:46 25.15320 86.91254 37936 ft 454 kts 288°
2026-05-09 01:46 25.17964 86.84921 37932 ft 452 kts 288°
2026-05-09 01:47 25.20592 86.78617 37926 ft 452 kts 288°
2026-05-09 01:47 25.23210 86.72327 37927 ft 454 kts 288°
2026-05-09 01:48 25.25849 86.65981 37935 ft 455 kts 288°
2026-05-09 01:48 25.28492 86.59613 37941 ft 456 kts 288°
2026-05-09 01:49 25.31131 86.53250 37932 ft 454 kts 288°
2026-05-09 01:49 25.33943 86.47008 37920 ft 459 kts 295°
2026-05-09 01:50 25.38089 86.41568 37920 ft 476 kts 310°
2026-05-09 01:50 25.43464 86.37138 37937 ft 483 kts 316°
2026-05-09 01:51 25.48929 86.32807 37936 ft 483 kts 316°
2026-05-09 01:51 25.54402 86.28472 37936 ft 484 kts 316°
2026-05-09 01:52 25.59878 86.24131 37980 ft 484 kts 315°
2026-05-09 01:52 25.65339 86.19752 37931 ft 483 kts 315°
2026-05-09 01:53 25.70788 86.15395 37939 ft 482 kts 316°
2026-05-09 01:53 25.76208 86.11048 37934 ft 481 kts 315°
2026-05-09 01:54 25.81636 86.06692 37935 ft 482 kts 315°
2026-05-09 01:54 25.87044 86.02349 37939 ft 483 kts 315°
2026-05-09 01:55 25.92493 85.97963 37941 ft 484 kts 316°
2026-05-09 01:55 25.97950 85.93572 37934 ft 483 kts 315°
2026-05-09 01:56 26.03385 85.89188 37927 ft 482 kts 315°
2026-05-09 01:56 26.08816 85.84806 37936 ft 482 kts 315°
2026-05-09 01:57 26.14247 85.80417 37945 ft 482 kts 315°
2026-05-09 01:57 26.19635 85.76058 37966 ft 482 kts 315°
2026-05-09 01:58 26.25057 85.71666 37957 ft 481 kts 316°
2026-05-09 01:58 26.30067 85.66894 37955 ft 466 kts 304°
2026-05-09 01:59 26.33606 85.60989 37966 ft 454 kts 289°
2026-05-09 01:59 26.35639 85.54411 37971 ft 448 kts 280°
2026-05-09 02:00 26.37357 85.47737 37972 ft 447 kts 281°
2026-05-09 02:00 26.39068 85.41077 37979 ft 447 kts 281°
2026-05-09 02:01 26.40776 85.34398 37980 ft 448 kts 281°
2026-05-09 02:01 26.42488 85.27706 37981 ft 449 kts 281°
2026-05-09 02:02 26.44195 85.21010 37985 ft 448 kts 281°
2026-05-09 02:02 26.45896 85.14328 37984 ft 447 kts 281°
2026-05-09 02:03 26.47588 85.07662 37979 ft 446 kts 281°
2026-05-09 02:03 26.49267 85.01030 37979 ft 448 kts 281°
2026-05-09 02:04 26.50962 84.94338 37973 ft 447 kts 281°
2026-05-09 02:04 26.52646 84.87656 37971 ft 447 kts 281°
2026-05-09 02:05 26.54332 84.80964 37971 ft 447 kts 281°
2026-05-09 02:05 26.56003 84.74311 37968 ft 447 kts 281°
2026-05-09 02:06 26.57677 84.67633 37969 ft 447 kts 281°
2026-05-09 02:07 26.60187 84.57596 37953 ft 446 kts 282°
2026-05-09 02:07 26.61853 84.50910 37944 ft 445 kts 282°
2026-05-09 02:08 26.63514 84.44237 37940 ft 446 kts 282°
2026-05-09 02:08 26.65177 84.37537 37966 ft 447 kts 282°
2026-05-09 02:09 26.66858 84.30861 37959 ft 449 kts 282°
2026-05-09 02:09 26.68583 84.24145 37948 ft 449 kts 283°
2026-05-09 02:10 26.70279 84.17421 37943 ft 449 kts 283°
2026-05-09 02:10 26.71987 84.10700 37947 ft 449 kts 283°
2026-05-09 02:11 26.73680 84.03986 37938 ft 448 kts 282°
2026-05-09 02:11 26.75366 83.97302 37947 ft 450 kts 283°
2026-05-09 02:12 26.77060 83.90559 37943 ft 449 kts 282°
2026-05-09 02:12 26.78618 83.83785 37945 ft 449 kts 282°
2026-05-09 02:13 26.80192 83.77016 37944 ft 449 kts 282°
2026-05-09 02:13 26.81745 83.70235 37943 ft 449 kts 282°
2026-05-09 02:14 26.83306 83.63463 37946 ft 449 kts 282°
2026-05-09 02:14 26.84843 83.56742 37944 ft 449 kts 282°
2026-05-09 02:15 26.86393 83.49968 37941 ft 448 kts 282°
2026-05-09 02:15 26.87936 83.43207 37929 ft 448 kts 282°
2026-05-09 02:16 26.89476 83.36437 37927 ft 448 kts 282°
2026-05-09 02:16 26.91010 83.29679 37924 ft 447 kts 282°
2026-05-09 02:17 26.92531 83.22965 37929 ft 447 kts 282°
2026-05-09 02:17 26.94059 83.16199 37929 ft 448 kts 282°
2026-05-09 02:18 26.95590 83.09411 37927 ft 449 kts 282°
2026-05-09 02:18 26.97118 83.02617 37932 ft 450 kts 282°
2026-05-09 02:19 26.98632 82.95805 37934 ft 451 kts 282°
2026-05-09 02:19 27.00098 82.88955 37918 ft 454 kts 282°
2026-05-09 02:20 27.01605 82.82047 37927 ft 456 kts 282°
2026-05-09 02:20 27.03089 82.75153 37918 ft 454 kts 282°
2026-05-09 02:21 27.04565 82.68315 37911 ft 454 kts 282°
2026-05-09 02:21 27.06043 82.61432 37914 ft 454 kts 282°
2026-05-09 02:22 27.07521 82.54536 37913 ft 454 kts 282°
2026-05-09 02:22 27.08993 82.47652 37914 ft 454 kts 282°
2026-05-09 02:23 27.10463 82.40761 37916 ft 454 kts 282°
2026-05-09 02:23 27.11934 82.33845 37916 ft 455 kts 282°
2026-05-09 02:24 27.13401 82.26932 37916 ft 455 kts 282°
2026-05-09 02:24 27.14855 82.20060 37919 ft 455 kts 282°
2026-05-09 02:25 27.16378 82.13157 37928 ft 456 kts 283°
2026-05-09 02:25 27.17908 82.06245 37931 ft 456 kts 283°
2026-05-09 02:26 27.19422 81.99318 37926 ft 456 kts 283°
2026-05-09 02:26 27.20942 81.92407 37926 ft 456 kts 283°
2026-05-09 02:27 27.22451 81.85483 37920 ft 456 kts 283°
2026-05-09 02:27 27.23953 81.78603 37911 ft 457 kts 283°
2026-05-09 02:28 27.25469 81.71635 37922 ft 460 kts 283°
2026-05-09 02:28 27.26983 81.64654 37912 ft 459 kts 283°
2026-05-09 02:29 27.28494 81.57675 37913 ft 458 kts 283°
2026-05-09 02:29 27.29995 81.50717 37910 ft 457 kts 283°
2026-05-09 02:30 27.31491 81.43768 37910 ft 457 kts 283°
2026-05-09 02:30 27.32730 81.38002 37905 ft 456 kts 283°
2026-05-09 02:31 27.34215 81.31069 37903 ft 456 kts 283°
2026-05-09 02:31 27.35702 81.24113 37909 ft 458 kts 283°
2026-05-09 02:32 27.37187 81.17147 37917 ft 458 kts 283°
2026-05-09 02:32 27.38672 81.10162 37921 ft 459 kts 283°
2026-05-09 02:33 27.40144 81.03217 37915 ft 459 kts 283°
2026-05-09 02:33 27.41626 80.96213 37915 ft 460 kts 283°
2026-05-09 02:34 27.43101 80.89218 37898 ft 459 kts 283°
2026-05-09 02:34 27.44576 80.82209 37900 ft 460 kts 283°
2026-05-09 02:35 27.46049 80.75187 37907 ft 461 kts 283°
2026-05-09 02:35 27.47525 80.68136 37905 ft 464 kts 284°
2026-05-09 02:36 27.49001 80.61062 37895 ft 463 kts 284°
2026-05-09 02:36 27.50470 80.54006 37891 ft 462 kts 284°
2026-05-09 02:37 27.51994 80.47021 37903 ft 462 kts 285°
2026-05-09 02:37 27.53529 80.39971 37903 ft 464 kts 284°
2026-05-09 02:38 27.55054 80.32893 37899 ft 465 kts 284°
2026-05-09 02:38 27.56587 80.25822 37894 ft 463 kts 284°
2026-05-09 02:39 27.58102 80.18768 37890 ft 462 kts 284°
2026-05-09 02:39 27.59607 80.11772 37886 ft 462 kts 284°
2026-05-09 02:40 27.61121 80.04702 37896 ft 465 kts 284°
2026-05-09 02:40 27.62638 79.97605 37896 ft 465 kts 284°
2026-05-09 02:41 27.64148 79.90515 37895 ft 464 kts 284°
2026-05-09 02:41 27.65652 79.83439 37889 ft 463 kts 284°
2026-05-09 02:42 27.67148 79.76379 37883 ft 462 kts 285°
2026-05-09 02:42 27.68770 79.69385 37866 ft 460 kts 292°
2026-05-09 02:43 27.71849 79.63124 37882 ft 464 kts 308°
2026-05-09 02:43 27.76319 79.57854 37894 ft 465 kts 314°
2026-05-09 02:44 27.80908 79.52700 37889 ft 465 kts 314°
2026-05-09 02:44 27.85494 79.47548 37889 ft 465 kts 314°
2026-05-09 02:45 27.90082 79.42390 37870 ft 465 kts 314°
2026-05-09 02:45 27.94640 79.37255 37875 ft 461 kts 314°
2026-05-09 02:46 27.99176 79.32141 37871 ft 460 kts 314°
2026-05-09 02:46 28.03711 79.27020 37872 ft 460 kts 314°
2026-05-09 02:47 28.08247 79.21893 37873 ft 461 kts 314°
2026-05-09 02:47 28.12760 79.16783 37880 ft 462 kts 314°
2026-05-09 02:48 28.17306 79.11632 37883 ft 462 kts 314°
2026-05-09 02:48 28.21861 79.06463 37886 ft 462 kts 314°
2026-05-09 02:49 28.26387 79.01320 37890 ft 457 kts 315°
2026-05-09 02:49 28.30864 78.96227 37885 ft 456 kts 315°
2026-05-09 02:50 28.35320 78.91151 37894 ft 457 kts 315°
2026-05-09 02:50 28.39815 78.86023 37897 ft 458 kts 315°
2026-05-09 02:51 28.44315 78.80885 37901 ft 458 kts 315°
2026-05-09 02:51 28.49089 78.76101 37918 ft 458 kts 322°
2026-05-09 02:52 28.54138 78.71721 37905 ft 459 kts 322°
2026-05-09 02:52 28.59210 78.67312 37885 ft 457 kts 323°
2026-05-09 02:53 28.64211 78.62971 37890 ft 449 kts 323°
2026-05-09 02:53 28.69180 78.58642 37896 ft 450 kts 323°
2026-05-09 02:54 28.74178 78.54290 37900 ft 452 kts 323°
2026-05-09 02:54 28.79152 78.49949 37913 ft 454 kts 323°
2026-05-09 02:55 28.84167 78.45569 37915 ft 453 kts 323°
2026-05-09 02:55 28.89169 78.41193 37920 ft 452 kts 323°
2026-05-09 02:56 28.94158 78.36825 37907 ft 452 kts 323°
2026-05-09 02:56 28.99140 78.32456 37913 ft 451 kts 323°
2026-05-09 02:57 29.04108 78.28094 37909 ft 452 kts 323°
2026-05-09 02:57 29.09101 78.23706 37931 ft 458 kts 323°
2026-05-09 02:58 29.14147 78.19264 37929 ft 457 kts 323°
2026-05-09 02:58 29.19172 78.14836 37929 ft 455 kts 323°
2026-05-09 02:59 29.24188 78.10410 37921 ft 454 kts 323°
2026-05-09 02:59 29.29187 78.05993 37935 ft 454 kts 323°
2026-05-09 03:00 29.34229 78.01534 37936 ft 460 kts 323°
2026-05-09 03:00 29.39293 77.97048 37936 ft 460 kts 323°
2026-05-09 03:01 29.44277 77.92626 37929 ft 447 kts 323°
2026-05-09 03:01 29.49173 77.88280 37929 ft 445 kts 323°
2026-05-09 03:02 29.54090 77.83908 37949 ft 448 kts 323°
2026-05-09 03:02 29.59042 77.79499 37945 ft 451 kts 323°
2026-05-09 03:03 29.64004 77.75076 37950 ft 451 kts 323°
2026-05-09 03:03 29.68929 77.70681 37948 ft 450 kts 323°
2026-05-09 03:04 29.73868 77.66267 37944 ft 449 kts 323°
2026-05-09 03:04 29.78797 77.61856 37944 ft 448 kts 323°
2026-05-09 03:05 29.83721 77.57443 37950 ft 444 kts 324°
2026-05-09 03:05 29.88549 77.53113 37935 ft 438 kts 324°
2026-05-09 03:06 29.93380 77.48775 37946 ft 442 kts 324°
2026-05-09 03:06 29.98250 77.44438 37948 ft 441 kts 327°
2026-05-09 03:07 30.03596 77.41083 37943 ft 439 kts 334°
2026-05-09 03:07 30.09057 77.37906 37933 ft 440 kts 334°
2026-05-09 03:08 30.14531 77.34724 37939 ft 440 kts 334°
2026-05-09 03:08 30.20009 77.31536 37943 ft 441 kts 334°
2026-05-09 03:09 30.25482 77.28344 37951 ft 441 kts 334°
2026-05-09 03:09 30.30964 77.25146 37951 ft 440 kts 334°
2026-05-09 03:10 30.36413 77.21925 37941 ft 436 kts 332°
2026-05-09 03:10 30.41137 77.17701 37941 ft 429 kts 319°
2026-05-09 03:11 30.44962 77.12286 37957 ft 438 kts 311°
2026-05-09 03:11 30.48631 77.06698 37938 ft 438 kts 312°
2026-05-09 03:12 30.52320 77.01061 37937 ft 439 kts 312°
2026-05-09 03:12 30.56009 76.95415 37940 ft 438 kts 312°
2026-05-09 03:13 30.61532 76.86952 37951 ft 438 kts 312°
2026-05-09 03:13 30.65148 76.81397 37929 ft 429 kts 312°
2026-05-09 03:14 30.68482 76.75630 37938 ft 437 kts 303°
2026-05-09 03:14 30.70866 76.69049 37941 ft 442 kts 299°
2026-05-09 03:15 30.73180 76.62418 37942 ft 443 kts 299°
2026-05-09 03:15 30.75477 76.55770 37933 ft 443 kts 298°
2026-05-09 03:16 30.77777 76.49123 37917 ft 442 kts 299°
2026-05-09 03:16 30.80041 76.42552 37910 ft 435 kts 299°
2026-05-09 03:17 30.82284 76.36054 37924 ft 437 kts 299°
2026-05-09 03:17 30.84547 76.29463 37919 ft 439 kts 299°
2026-05-09 03:18 30.86791 76.22851 37923 ft 439 kts 298°
2026-05-09 03:18 30.89002 76.16246 37919 ft 437 kts 298°
2026-05-09 03:19 30.91208 76.09698 37909 ft 431 kts 298°
2026-05-09 03:19 30.93015 76.04303 37899 ft 431 kts 298°
2026-05-09 03:20 30.95200 75.97783 37909 ft 433 kts 298°
2026-05-09 03:20 30.97388 75.91225 37913 ft 434 kts 298°
2026-05-09 03:21 30.99575 75.84668 37919 ft 434 kts 298°
2026-05-09 03:21 31.01760 75.78103 37886 ft 434 kts 298°
2026-05-09 03:22 31.03911 75.71619 37902 ft 429 kts 298°
2026-05-09 03:22 31.06063 75.65134 37901 ft 429 kts 298°
2026-05-09 03:23 31.08209 75.58644 37897 ft 429 kts 298°
2026-05-09 03:23 31.10353 75.52150 37899 ft 429 kts 298°
2026-05-09 03:24 31.12324 75.45552 37907 ft 433 kts 293°
2026-05-09 03:24 31.14041 75.38814 37898 ft 431 kts 294°
2026-05-09 03:25 31.15747 75.32110 37897 ft 430 kts 294°
2026-05-09 03:25 31.17441 75.25406 37896 ft 430 kts 294°
2026-05-09 03:26 31.19139 75.18701 37897 ft 430 kts 294°
2026-05-09 03:26 31.20830 75.11985 37912 ft 431 kts 294°
2026-05-09 03:27 31.22513 75.05300 37881 ft 432 kts 293°
2026-05-09 03:27 31.24189 74.98602 37893 ft 428 kts 293°
2026-05-09 03:28 31.25863 74.91928 37898 ft 428 kts 293°
2026-05-09 03:28 31.27531 74.85239 37896 ft 428 kts 293°
2026-05-09 03:29 31.29201 74.78539 37904 ft 429 kts 293°
2026-05-09 03:29 31.30864 74.71842 37905 ft 429 kts 293°
2026-05-09 03:30 31.32526 74.65136 37906 ft 429 kts 293°
2026-05-09 03:30 31.34184 74.58432 37909 ft 429 kts 293°
2026-05-09 03:31 31.35570 74.51648 37912 ft 433 kts 290°
2026-05-09 03:31 31.36896 74.44757 37916 ft 434 kts 290°
2026-05-09 03:32 31.38197 74.37850 37918 ft 434 kts 290°
2026-05-09 03:32 31.39498 74.30971 37913 ft 430 kts 290°
2026-05-09 03:33 31.40784 74.24154 37910 ft 429 kts 290°
2026-05-09 03:33 31.42065 74.17327 37908 ft 429 kts 290°
2026-05-09 03:34 31.43343 74.10503 37906 ft 429 kts 290°
2026-05-09 03:34 31.44516 74.03668 37879 ft 436 kts 284°
2026-05-09 03:35 31.44496 73.96462 37888 ft 449 kts 272°
2026-05-09 03:35 31.43751 73.89221 37889 ft 446 kts 273°
2026-05-09 03:36 31.43036 73.82007 37889 ft 446 kts 272°
2026-05-09 03:36 31.42295 73.74785 37887 ft 446 kts 272°
2026-05-09 03:37 31.41559 73.67553 37888 ft 446 kts 272°
2026-05-09 03:37 31.40818 73.60394 37889 ft 445 kts 272°
2026-05-09 03:38 31.40075 73.53199 37891 ft 445 kts 272°
2026-05-09 03:38 31.39323 73.45989 37889 ft 445 kts 272°
2026-05-09 03:39 31.38568 73.38783 37889 ft 446 kts 272°
2026-05-09 03:39 31.37809 73.31576 37893 ft 446 kts 272°
2026-05-09 03:40 31.37046 73.24379 37881 ft 445 kts 272°
2026-05-09 03:40 31.36288 73.17247 37876 ft 444 kts 272°
2026-05-09 03:41 31.35521 73.10091 37881 ft 444 kts 272°
2026-05-09 03:41 31.34751 73.02925 37881 ft 444 kts 272°
2026-05-09 03:42 31.33974 72.95750 37883 ft 445 kts 272°
2026-05-09 03:42 31.33193 72.88573 37884 ft 443 kts 271°
2026-05-09 03:43 31.32412 72.81420 37880 ft 443 kts 271°
2026-05-09 03:43 31.31626 72.74264 37877 ft 444 kts 271°
2026-05-09 03:44 31.30841 72.67154 37875 ft 444 kts 271°
2026-05-09 03:44 31.30045 72.59979 37854 ft 444 kts 271°
2026-05-09 03:45 31.29246 72.52822 37867 ft 442 kts 271°
2026-05-09 03:45 31.28447 72.45691 37870 ft 442 kts 271°
2026-05-09 03:46 31.27646 72.38558 37867 ft 441 kts 272°
2026-05-09 03:46 31.27720 72.31576 37863 ft 427 kts 284°
2026-05-09 03:47 31.29200 72.24940 37846 ft 419 kts 296°
2026-05-09 03:47 31.31820 72.18885 37874 ft 417 kts 302°
2026-05-09 03:48 31.34584 72.12902 37877 ft 417 kts 301°
2026-05-09 03:48 31.37345 72.06948 37874 ft 415 kts 301°
2026-05-09 03:49 31.40094 72.01006 37870 ft 415 kts 301°
2026-05-09 03:49 31.42817 71.95107 37869 ft 414 kts 301°
2026-05-09 03:50 31.45560 71.89161 37879 ft 415 kts 301°
2026-05-09 03:50 31.48318 71.83166 37863 ft 418 kts 301°
2026-05-09 03:51 31.51074 71.77170 37863 ft 417 kts 301°
2026-05-09 03:51 31.53809 71.71211 37863 ft 417 kts 301°
2026-05-09 03:52 31.56548 71.65232 37877 ft 415 kts 301°
2026-05-09 03:52 31.59274 71.59270 37875 ft 414 kts 301°
2026-05-09 03:53 31.62001 71.53294 37882 ft 416 kts 300°
2026-05-09 03:53 31.64726 71.47308 37876 ft 419 kts 300°
2026-05-09 03:54 31.67475 71.41263 37882 ft 418 kts 300°
2026-05-09 03:54 31.70210 71.35238 37882 ft 418 kts 300°
2026-05-09 03:55 31.72943 71.29207 37880 ft 418 kts 300°
2026-05-09 03:55 31.75669 71.23183 37864 ft 417 kts 300°
2026-05-09 03:56 31.78371 71.17203 37881 ft 417 kts 300°
2026-05-09 03:56 31.81086 71.11183 37870 ft 416 kts 300°
2026-05-09 03:57 31.83797 71.05163 37872 ft 416 kts 300°
2026-05-09 03:57 31.86505 70.99139 37875 ft 416 kts 300°
2026-05-09 03:58 31.89298 70.93184 37856 ft 415 kts 305°
2026-05-09 03:58 31.93022 70.88014 37850 ft 416 kts 316°
2026-05-09 03:59 31.97697 70.84009 37884 ft 422 kts 326°
2026-05-09 03:59 32.02736 70.80465 37888 ft 421 kts 325°
2026-05-09 04:00 32.07766 70.76901 37890 ft 421 kts 326°
2026-05-09 04:00 32.12794 70.73351 37876 ft 421 kts 326°
2026-05-09 04:01 32.17811 70.69792 37894 ft 421 kts 326°
2026-05-09 04:01 32.22831 70.66234 37871 ft 420 kts 325°
2026-05-09 04:02 32.27845 70.62672 37870 ft 420 kts 325°
2026-05-09 04:02 32.32814 70.59139 37867 ft 419 kts 325°
2026-05-09 04:03 32.37806 70.55584 37875 ft 419 kts 325°
2026-05-09 04:03 32.42812 70.52013 37884 ft 422 kts 325°
2026-05-09 04:04 32.47874 70.48399 37893 ft 425 kts 325°
2026-05-09 04:04 32.52934 70.44783 37902 ft 424 kts 325°
2026-05-09 04:05 32.57980 70.41169 37898 ft 423 kts 325°
2026-05-09 04:05 32.62987 70.37581 37897 ft 423 kts 325°
2026-05-09 04:06 32.68022 70.33975 37896 ft 422 kts 325°
2026-05-09 04:06 32.73064 70.30368 37909 ft 422 kts 325°
2026-05-09 04:07 32.77238 70.27372 37926 ft 422 kts 325°
2026-05-09 04:07 32.82275 70.23758 37917 ft 422 kts 325°
2026-05-09 04:08 32.87303 70.20143 37923 ft 423 kts 324°
2026-05-09 04:08 32.92365 70.16498 37952 ft 427 kts 324°
2026-05-09 04:09 32.97444 70.12840 37955 ft 426 kts 324°
2026-05-09 04:09 33.02384 70.09280 37925 ft 403 kts 324°
2026-05-09 04:10 33.04739 70.07580 37916 ft 388 kts 324°
2026-05-09 04:10 33.07004 70.05941 37931 ft 375 kts 324°
2026-05-09 04:10 33.11428 70.02728 37949 ft 375 kts 323°
2026-05-09 04:11 33.15935 69.99427 37953 ft 384 kts 323°
2026-05-09 04:11 33.20543 69.96020 37959 ft 394 kts 323°
2026-05-09 04:12 33.25256 69.92503 37985 ft 404 kts 323°
2026-05-09 04:12 33.30075 69.88875 38005 ft 414 kts 323°
2026-05-09 04:13 33.34965 69.85163 37992 ft 423 kts 323°
2026-05-09 04:13 33.39973 69.81327 38002 ft 430 kts 322°
2026-05-09 04:14 33.44990 69.77462 38032 ft 428 kts 322°
2026-05-09 04:14 33.49996 69.73584 38026 ft 429 kts 322°
2026-05-09 04:15 33.55017 69.69683 38025 ft 429 kts 322°
2026-05-09 04:15 33.59967 69.65829 38056 ft 426 kts 322°
2026-05-09 04:16 33.64954 69.61931 38072 ft 428 kts 322°
2026-05-09 04:16 33.69947 69.58009 38072 ft 428 kts 322°
2026-05-09 04:17 33.74938 69.54070 38065 ft 429 kts 322°
2026-05-09 04:17 33.79920 69.50123 38093 ft 430 kts 321°
2026-05-09 04:18 33.84930 69.46145 38099 ft 433 kts 322°
2026-05-09 04:18 33.89958 69.42153 38107 ft 432 kts 321°
2026-05-09 04:19 33.94915 69.38194 38099 ft 429 kts 321°
2026-05-09 04:19 33.99878 69.34212 38094 ft 427 kts 321°
2026-05-09 04:20 34.04848 69.30203 38100 ft 431 kts 321°
2026-05-09 04:20 34.09819 69.26174 38085 ft 430 kts 321°
2026-05-09 04:21 34.14775 69.22139 38076 ft 430 kts 321°
2026-05-09 04:22 34.22187 69.16069 38084 ft 434 kts 320°
2026-05-09 04:22 34.27174 69.11957 38078 ft 433 kts 320°
2026-05-09 04:23 34.32138 69.07849 38080 ft 432 kts 320°
2026-05-09 04:23 34.37105 69.03720 38079 ft 433 kts 320°
2026-05-09 04:24 34.42061 68.99580 38078 ft 432 kts 320°
2026-05-09 04:24 34.47012 68.95425 38090 ft 432 kts 320°
2026-05-09 04:25 34.51940 68.91279 38087 ft 431 kts 320°
2026-05-09 04:25 34.56830 68.87155 38088 ft 431 kts 320°
2026-05-09 04:26 34.61761 68.82994 38112 ft 434 kts 320°
2026-05-09 04:26 34.66714 68.78791 38127 ft 434 kts 320°
2026-05-09 04:27 34.71644 68.74591 38122 ft 432 kts 319°
2026-05-09 04:27 34.76555 68.70391 38153 ft 433 kts 319°
2026-05-09 04:28 34.81500 68.66143 38152 ft 435 kts 319°
2026-05-09 04:28 34.86424 68.61890 38173 ft 433 kts 319°
2026-05-09 04:29 34.91348 68.57624 38173 ft 435 kts 319°
2026-05-09 04:29 34.96265 68.53347 38171 ft 434 kts 319°
2026-05-09 04:30 35.01152 68.49078 38178 ft 436 kts 318°
2026-05-09 04:30 35.06082 68.44747 38200 ft 436 kts 317°
2026-05-09 04:31 35.10985 68.40406 38185 ft 434 kts 318°
2026-05-09 04:31 35.15877 68.36061 38175 ft 434 kts 318°
2026-05-09 04:32 35.20744 68.31722 38176 ft 431 kts 318°
2026-05-09 04:32 35.25584 68.27383 38187 ft 435 kts 318°
2026-05-09 04:33 35.30456 68.22996 38174 ft 432 kts 317°
2026-05-09 04:33 35.35299 68.18617 38153 ft 434 kts 317°
2026-05-09 04:34 35.40146 68.14213 38147 ft 434 kts 317°
2026-05-09 04:34 35.44997 68.09779 38211 ft 432 kts 316°
2026-05-09 04:35 35.49833 68.05314 38124 ft 436 kts 316°
2026-05-09 04:35 35.54673 68.00823 38145 ft 436 kts 317°
2026-05-09 04:36 35.59513 67.96313 38123 ft 436 kts 316°
2026-05-09 04:36 35.64350 67.91790 38142 ft 437 kts 316°
2026-05-09 04:37 35.69185 67.87250 38138 ft 437 kts 316°
2026-05-09 04:37 35.73992 67.82722 38117 ft 438 kts 316°
2026-05-09 04:38 35.78826 67.78150 38099 ft 437 kts 316°
2026-05-09 04:38 35.83635 67.73587 38115 ft 436 kts 316°
2026-05-09 04:39 35.88404 67.69060 38062 ft 434 kts 316°
2026-05-09 04:39 35.93203 67.64485 38069 ft 438 kts 316°
2026-05-09 04:40 35.98014 67.59878 38061 ft 437 kts 316°
2026-05-09 04:40 36.02812 67.55270 38053 ft 437 kts 316°
2026-05-09 04:41 36.07623 67.50627 38045 ft 439 kts 316°
2026-05-09 04:41 36.12436 67.45965 38028 ft 439 kts 315°
2026-05-09 04:42 36.17236 67.41297 38025 ft 439 kts 315°
2026-05-09 04:42 36.22038 67.36612 38035 ft 439 kts 315°
2026-05-09 04:43 36.26830 67.31917 38008 ft 439 kts 315°
2026-05-09 04:43 36.31581 67.27247 38001 ft 438 kts 315°
2026-05-09 04:44 36.36352 67.22540 37991 ft 438 kts 315°
2026-05-09 04:44 36.41138 67.17801 38008 ft 440 kts 315°
2026-05-09 04:45 36.45935 67.13028 37974 ft 441 kts 314°
2026-05-09 04:45 36.50690 67.08281 37968 ft 441 kts 315°
2026-05-09 04:46 36.55467 67.03505 37962 ft 441 kts 314°
2026-05-09 04:46 36.60245 66.98710 37950 ft 441 kts 314°
2026-05-09 04:47 36.65015 66.93908 37947 ft 440 kts 314°
2026-05-09 04:47 36.69767 66.89108 37935 ft 439 kts 314°
2026-05-09 04:48 36.74530 66.84277 37932 ft 442 kts 314°
2026-05-09 04:48 36.79302 66.79413 37947 ft 443 kts 314°
2026-05-09 04:49 36.84059 66.74548 37936 ft 441 kts 313°
2026-05-09 04:49 36.88770 66.69718 37924 ft 440 kts 313°
2026-05-09 04:50 36.93492 66.64863 37926 ft 440 kts 313°
2026-05-09 04:50 36.98219 66.59981 37930 ft 442 kts 313°
2026-05-09 04:51 37.02944 66.55085 37934 ft 440 kts 313°
2026-05-09 04:51 37.07663 66.50177 37936 ft 442 kts 313°
2026-05-09 04:52 37.12393 66.45236 37932 ft 443 kts 313°
2026-05-09 04:52 37.17117 66.40281 37926 ft 442 kts 313°
2026-05-09 04:53 37.21807 66.35355 37926 ft 439 kts 313°
2026-05-09 04:53 37.26451 66.30463 37928 ft 438 kts 313°
2026-05-09 04:54 37.31124 66.25523 37937 ft 439 kts 313°
2026-05-09 04:54 37.35800 66.20558 37928 ft 440 kts 312°
2026-05-09 04:55 37.39675 66.16433 37928 ft 439 kts 312°
2026-05-09 04:55 37.44330 66.11463 37927 ft 438 kts 312°
2026-05-09 04:56 37.48974 66.06489 37930 ft 438 kts 312°
2026-05-09 04:56 37.53609 66.01507 37943 ft 437 kts 312°
2026-05-09 04:57 37.58201 65.96557 37946 ft 436 kts 312°
2026-05-09 04:57 37.62807 65.91577 37943 ft 437 kts 311°
2026-05-09 04:58 37.67425 65.86561 37951 ft 439 kts 311°
2026-05-09 04:58 37.72055 65.81507 37944 ft 439 kts 311°
2026-05-09 04:59 37.76660 65.76468 37949 ft 437 kts 311°
2026-05-09 04:59 37.81243 65.71439 37950 ft 436 kts 311°
2026-05-09 05:00 37.85795 65.66426 37951 ft 436 kts 311°
2026-05-09 05:00 37.90376 65.61361 37957 ft 438 kts 311°
2026-05-09 05:01 37.94961 65.56271 37961 ft 438 kts 310°
2026-05-09 05:01 37.99539 65.51168 37956 ft 438 kts 310°
2026-05-09 05:02 38.04103 65.46066 37983 ft 437 kts 310°
2026-05-09 05:02 38.08669 65.40942 37944 ft 438 kts 310°
2026-05-09 05:03 38.13228 65.35806 37943 ft 438 kts 310°
2026-05-09 05:03 38.17774 65.30666 37945 ft 437 kts 310°
2026-05-09 05:04 38.22325 65.25503 37953 ft 440 kts 310°
2026-05-09 05:04 38.26900 65.20276 37948 ft 443 kts 310°
2026-05-09 05:05 38.31468 65.15039 37947 ft 441 kts 309°
2026-05-09 05:05 38.36018 65.09807 37926 ft 440 kts 309°
2026-05-09 05:06 38.40529 65.04605 37941 ft 439 kts 309°
2026-05-09 05:06 38.45065 64.99350 37949 ft 441 kts 309°
2026-05-09 05:07 38.49614 64.94055 37942 ft 444 kts 309°
2026-05-09 05:07 38.54172 64.88728 37939 ft 443 kts 309°
2026-05-09 05:08 38.58723 64.83388 37931 ft 444 kts 309°
2026-05-09 05:08 38.63274 64.78026 37933 ft 445 kts 309°
2026-05-09 05:09 38.67816 64.72656 37935 ft 445 kts 309°
2026-05-09 05:09 38.72327 64.67300 37942 ft 446 kts 309°
2026-05-09 05:10 38.76886 64.61856 37940 ft 448 kts 309°
2026-05-09 05:10 38.81428 64.56416 37940 ft 445 kts 308°
2026-05-09 05:11 38.85948 64.50989 37938 ft 445 kts 308°
2026-05-09 05:11 38.90474 64.45524 37953 ft 450 kts 308°
2026-05-09 05:12 38.95038 64.39981 37951 ft 451 kts 308°
2026-05-09 05:12 38.99581 64.34445 37944 ft 449 kts 308°
2026-05-09 05:13 39.04108 64.28916 37983 ft 448 kts 308°
2026-05-09 05:13 39.08606 64.23402 37958 ft 450 kts 308°
2026-05-09 05:14 39.13134 64.17828 37958 ft 450 kts 308°
2026-05-09 05:14 39.17659 64.12237 37960 ft 450 kts 308°
2026-05-09 05:15 39.22176 64.06632 37953 ft 450 kts 308°
2026-05-09 05:15 39.26674 64.01036 37949 ft 450 kts 308°
2026-05-09 05:16 39.31147 63.95447 37950 ft 450 kts 308°
2026-05-09 05:16 39.35646 63.89805 37949 ft 450 kts 308°
2026-05-09 05:17 39.40126 63.84167 37968 ft 448 kts 308°
2026-05-09 05:17 39.44594 63.78532 37968 ft 447 kts 308°
2026-05-09 05:18 39.49051 63.72891 37972 ft 448 kts 307°
2026-05-09 05:18 39.53472 63.67273 37973 ft 449 kts 307°
2026-05-09 05:19 39.57916 63.61609 37980 ft 447 kts 307°
2026-05-09 05:19 39.62345 63.55947 37981 ft 447 kts 307°
2026-05-09 05:20 39.66766 63.50274 37983 ft 447 kts 307°
2026-05-09 05:20 39.71187 63.44582 37996 ft 447 kts 307°
2026-05-09 05:21 39.75599 63.38881 38000 ft 448 kts 307°
2026-05-09 05:21 39.79998 63.33170 38011 ft 450 kts 307°
2026-05-09 05:22 39.84421 63.27406 38006 ft 450 kts 306°
2026-05-09 05:22 39.88839 63.21629 38013 ft 450 kts 306°
2026-05-09 05:23 39.93252 63.15838 38014 ft 450 kts 306°
2026-05-09 05:23 39.97656 63.10040 38023 ft 450 kts 306°
2026-05-09 05:24 40.02068 63.04211 38029 ft 451 kts 306°
2026-05-09 05:24 40.06467 62.98380 38034 ft 450 kts 306°
2026-05-09 05:25 40.10847 62.92560 38032 ft 449 kts 306°
2026-05-09 05:25 40.17428 62.83773 38035 ft 452 kts 306°
2026-05-09 05:26 40.21823 62.77874 38045 ft 454 kts 306°
2026-05-09 05:26 40.26230 62.71934 38053 ft 454 kts 305°
2026-05-09 05:27 40.30595 62.66031 38037 ft 455 kts 305°
2026-05-09 05:27 40.34993 62.60062 38043 ft 455 kts 305°
2026-05-09 05:28 40.39387 62.54079 38046 ft 454 kts 305°
2026-05-09 05:28 40.43769 62.48094 38061 ft 455 kts 305°
2026-05-09 05:29 40.48147 62.42094 38061 ft 454 kts 304°
2026-05-09 05:29 40.52519 62.36084 38062 ft 454 kts 304°
2026-05-09 05:30 40.56876 62.30079 38079 ft 453 kts 304°
2026-05-09 05:30 40.61198 62.24097 38068 ft 455 kts 304°
2026-05-09 05:31 40.65562 62.18032 38071 ft 458 kts 304°
2026-05-09 05:31 40.69943 62.11912 38075 ft 458 kts 304°
2026-05-09 05:32 40.74316 62.05782 38068 ft 459 kts 304°
2026-05-09 05:32 40.78688 61.99632 38076 ft 459 kts 304°
2026-05-09 05:33 40.83049 61.93479 38068 ft 458 kts 304°
2026-05-09 05:33 40.87422 61.87282 38069 ft 464 kts 304°
2026-05-09 05:34 40.91824 61.81001 38067 ft 466 kts 303°
2026-05-09 05:34 40.96219 61.74709 38070 ft 465 kts 303°
2026-05-09 05:35 41.00576 61.68452 38068 ft 465 kts 303°
2026-05-09 05:35 41.04941 61.62168 38068 ft 463 kts 303°
2026-05-09 05:36 41.09298 61.55876 38065 ft 463 kts 303°
2026-05-09 05:36 41.13649 61.49575 38077 ft 463 kts 303°
2026-05-09 05:37 41.17980 61.43287 38071 ft 461 kts 303°
2026-05-09 05:37 41.22301 61.36996 38072 ft 461 kts 303°
2026-05-09 05:38 41.26614 61.30694 38101 ft 459 kts 303°
2026-05-09 05:38 41.30888 61.24451 38070 ft 455 kts 303°
2026-05-09 05:39 41.35153 61.18202 38076 ft 457 kts 303°
2026-05-09 05:39 41.39397 61.11956 38079 ft 458 kts 303°
2026-05-09 05:40 41.43670 61.05643 38080 ft 459 kts 303°
2026-05-09 05:40 41.47915 60.99350 38072 ft 457 kts 303°
2026-05-09 05:41 41.52159 60.93048 38076 ft 455 kts 302°
2026-05-09 05:41 41.56388 60.86753 38072 ft 455 kts 302°
2026-05-09 05:42 41.59899 60.81512 38076 ft 456 kts 302°
2026-05-09 05:42 41.64130 60.75173 38075 ft 457 kts 302°
2026-05-09 05:43 41.68365 60.68802 38068 ft 459 kts 302°
2026-05-09 05:43 41.72585 60.62436 38073 ft 456 kts 302°
2026-05-09 05:44 41.76761 60.56124 38068 ft 455 kts 302°
2026-05-09 05:44 41.80953 60.49771 38097 ft 455 kts 302°
2026-05-09 05:45 41.85155 60.43375 38073 ft 457 kts 302°
2026-05-09 05:45 41.89353 60.36962 38075 ft 458 kts 302°
2026-05-09 05:46 41.93551 60.30528 38078 ft 458 kts 302°
2026-05-09 05:46 41.97753 60.24063 38052 ft 459 kts 302°
2026-05-09 05:47 42.01943 60.17598 38060 ft 458 kts 302°
2026-05-09 05:47 42.06126 60.11125 38057 ft 458 kts 302°
2026-05-09 05:48 42.10282 60.04675 38065 ft 458 kts 302°
2026-05-09 05:48 42.14459 59.98171 38057 ft 458 kts 301°
2026-05-09 05:49 42.18628 59.91662 38055 ft 458 kts 301°
2026-05-09 05:49 42.22794 59.85136 38060 ft 460 kts 301°
2026-05-09 05:50 42.26958 59.78590 38052 ft 460 kts 301°
2026-05-09 05:50 42.31125 59.72021 38044 ft 460 kts 301°
2026-05-09 05:51 42.35281 59.65452 38066 ft 460 kts 301°
2026-05-09 05:51 42.39445 59.58839 38047 ft 463 kts 301°
2026-05-09 05:52 42.43585 59.52246 38041 ft 462 kts 301°
2026-05-09 05:52 42.47736 59.45620 38037 ft 461 kts 301°
2026-05-09 05:53 42.51883 59.38978 38048 ft 465 kts 300°
2026-05-09 05:53 42.56075 59.32212 38050 ft 468 kts 300°
2026-05-09 05:54 42.60253 59.25452 38040 ft 466 kts 300°
2026-05-09 05:54 42.64416 59.18705 38034 ft 467 kts 300°
2026-05-09 05:55 42.68600 59.11883 38046 ft 471 kts 300°
2026-05-09 05:55 42.72785 59.05030 38047 ft 471 kts 300°
2026-05-09 05:56 42.76964 58.98169 38044 ft 470 kts 300°
2026-05-09 05:56 42.81109 58.91343 38049 ft 470 kts 300°
2026-05-09 05:57 42.85269 58.84473 38046 ft 470 kts 300°
2026-05-09 05:57 42.89430 58.77579 38046 ft 470 kts 300°
2026-05-09 05:58 42.93584 58.70670 38024 ft 472 kts 300°
2026-05-09 05:58 42.97712 58.63781 38044 ft 470 kts 300°
2026-05-09 05:59 43.01852 58.56855 38043 ft 469 kts 300°
2026-05-09 05:59 43.05977 58.49936 38038 ft 471 kts 300°
2026-05-09 06:00 43.10116 58.42957 38045 ft 473 kts 300°
2026-05-09 06:00 43.14257 58.35948 38052 ft 473 kts 300°
2026-05-09 06:01 43.18394 58.28920 38093 ft 474 kts 300°
2026-05-09 06:01 43.22536 58.21850 38054 ft 476 kts 300°
2026-05-09 06:02 43.26675 58.14767 38049 ft 475 kts 300°
2026-05-09 06:02 43.30775 58.07729 38050 ft 474 kts 300°
2026-05-09 06:03 43.34892 58.00636 38047 ft 474 kts 300°
2026-05-09 06:03 43.38993 57.93551 38045 ft 473 kts 300°
2026-05-09 06:04 43.43086 57.86463 38042 ft 474 kts 300°
2026-05-09 06:04 43.47184 57.79335 38041 ft 476 kts 300°
2026-05-09 06:05 43.51291 57.72159 38044 ft 477 kts 300°
2026-05-09 06:05 43.55367 57.65014 38051 ft 477 kts 300°
2026-05-09 06:06 43.59460 57.57818 38075 ft 477 kts 300°
2026-05-09 06:06 43.63560 57.50584 38054 ft 479 kts 300°
2026-05-09 06:07 43.67659 57.43325 38052 ft 479 kts 300°
2026-05-09 06:07 43.70371 57.38512 38052 ft 479 kts 300°
2026-05-09 06:08 43.75836 57.28779 38043 ft 480 kts 301°
2026-05-09 06:08 43.79928 57.21460 38041 ft 480 kts 300°
2026-05-09 06:09 43.83989 57.14175 38042 ft 480 kts 300°
2026-05-09 06:09 43.88064 57.06841 38041 ft 481 kts 301°
2026-05-09 06:10 43.92139 56.99487 38043 ft 479 kts 301°
2026-05-09 06:10 43.96187 56.92167 38034 ft 477 kts 301°
2026-05-09 06:11 44.00220 56.84856 38037 ft 478 kts 301°
2026-05-09 06:11 44.04267 56.77487 38046 ft 481 kts 301°
2026-05-09 06:12 44.08294 56.70125 38051 ft 482 kts 301°
2026-05-09 06:12 44.12348 56.62688 38044 ft 481 kts 301°
2026-05-09 06:13 44.16388 56.55259 38042 ft 480 kts 301°
2026-05-09 06:13 44.20404 56.47858 38038 ft 478 kts 301°
2026-05-09 06:14 44.24411 56.40452 38037 ft 479 kts 301°
2026-05-09 06:14 44.28421 56.33014 38067 ft 480 kts 301°
2026-05-09 06:15 44.32446 56.25513 38041 ft 484 kts 301°
2026-05-09 06:15 44.36470 56.17986 38039 ft 483 kts 301°
2026-05-09 06:16 44.40490 56.10445 38041 ft 483 kts 301°
2026-05-09 06:16 44.44500 56.02898 38041 ft 483 kts 301°
2026-05-09 06:17 44.48502 55.95338 38025 ft 483 kts 301°
2026-05-09 06:17 44.52502 55.87759 38025 ft 484 kts 301°
2026-05-09 06:18 44.56476 55.80205 38047 ft 484 kts 301°
2026-05-09 06:18 44.60472 55.72581 38033 ft 484 kts 301°
2026-05-09 06:19 44.64451 55.64970 38030 ft 483 kts 301°
2026-05-09 06:19 44.68413 55.57370 38025 ft 482 kts 301°
2026-05-09 06:20 44.72368 55.49755 38030 ft 483 kts 301°
2026-05-09 06:20 44.76327 55.42100 38028 ft 484 kts 301°
2026-05-09 06:21 44.80258 55.34473 38029 ft 485 kts 301°
2026-05-09 06:21 44.84214 55.26769 38042 ft 485 kts 302°
2026-05-09 06:22 44.88157 55.19062 38027 ft 484 kts 302°
2026-05-09 06:22 44.92082 55.11369 38018 ft 483 kts 301°
2026-05-09 06:23 44.95998 55.03670 38013 ft 484 kts 301°
2026-05-09 06:23 44.99918 54.95928 38026 ft 485 kts 302°
2026-05-09 06:24 45.03837 54.88159 38024 ft 486 kts 302°
2026-05-09 06:24 45.07735 54.80406 38031 ft 486 kts 302°
2026-05-09 06:25 45.11639 54.72615 38041 ft 484 kts 302°
2026-05-09 06:25 45.15517 54.64843 38017 ft 482 kts 302°
2026-05-09 06:26 45.19379 54.57081 38011 ft 482 kts 302°
2026-05-09 06:26 45.23243 54.49283 38014 ft 483 kts 302°
2026-05-09 06:27 45.27107 54.41456 38014 ft 484 kts 302°
2026-05-09 06:27 45.30961 54.33623 38002 ft 483 kts 302°
2026-05-09 06:28 45.34803 54.25785 38000 ft 483 kts 302°
2026-05-09 06:28 45.38630 54.17954 38000 ft 482 kts 302°
2026-05-09 06:29 45.42448 54.10109 38001 ft 482 kts 302°
2026-05-09 06:29 45.46242 54.02286 38004 ft 483 kts 302°
2026-05-09 06:30 45.50053 53.94399 38009 ft 483 kts 302°
2026-05-09 06:30 45.53862 53.86489 38010 ft 484 kts 302°
2026-05-09 06:31 45.57667 53.78557 38008 ft 484 kts 301°
2026-05-09 06:31 45.61463 53.70615 38005 ft 484 kts 301°
2026-05-09 06:32 45.64610 53.64012 38007 ft 484 kts 301°
2026-05-09 06:33 45.70273 53.52073 37999 ft 483 kts 301°
2026-05-09 06:33 45.74034 53.44110 37998 ft 482 kts 301°
2026-05-09 06:34 45.79651 53.32163 37996 ft 481 kts 301°
2026-05-09 06:34 45.83362 53.24230 38003 ft 483 kts 301°
2026-05-09 06:35 45.87106 53.16194 38006 ft 484 kts 301°
2026-05-09 06:35 45.90840 53.08150 38004 ft 484 kts 301°
2026-05-09 06:36 45.94562 53.00099 37996 ft 484 kts 301°
2026-05-09 06:36 45.98287 52.92010 38002 ft 485 kts 301°
2026-05-09 06:37 46.02002 52.83910 38000 ft 485 kts 301°
2026-05-09 06:37 46.05714 52.75783 38001 ft 485 kts 301°
2026-05-09 06:38 46.09393 52.67696 37996 ft 487 kts 301°
2026-05-09 06:38 46.13099 52.59516 37999 ft 487 kts 301°
2026-05-09 06:39 46.16791 52.51335 37994 ft 485 kts 301°
2026-05-09 06:39 46.20461 52.43172 37996 ft 484 kts 301°
2026-05-09 06:40 46.24127 52.34982 37995 ft 485 kts 301°
2026-05-09 06:40 46.27786 52.26773 38000 ft 487 kts 301°
2026-05-09 06:41 46.31453 52.18513 37992 ft 488 kts 301°
2026-05-09 06:41 46.35079 52.10310 37996 ft 486 kts 301°
2026-05-09 06:42 46.38703 52.02081 37984 ft 483 kts 301°
2026-05-09 06:42 46.42311 51.93854 37981 ft 483 kts 301°
2026-05-09 06:43 46.45918 51.85595 37985 ft 484 kts 301°
2026-05-09 06:43 46.49515 51.77324 37989 ft 484 kts 301°
2026-05-09 06:44 46.53099 51.69051 37988 ft 484 kts 301°
2026-05-09 06:44 46.56653 51.60814 37986 ft 483 kts 301°
2026-05-09 06:45 46.60208 51.52541 37983 ft 482 kts 301°
2026-05-09 06:45 46.63754 51.44254 37983 ft 482 kts 301°
2026-05-09 06:46 46.67288 51.35962 37981 ft 481 kts 301°
2026-05-09 06:46 46.70815 51.27654 37981 ft 483 kts 301°
2026-05-09 06:47 46.74344 51.19309 37989 ft 485 kts 301°
2026-05-09 06:47 46.77871 51.10932 37988 ft 484 kts 301°
2026-05-09 06:48 46.81358 51.02619 37985 ft 482 kts 301°
2026-05-09 06:48 46.84844 50.94274 37980 ft 481 kts 301°
2026-05-09 06:49 46.88325 50.85910 37978 ft 482 kts 301°
2026-05-09 06:49 46.91806 50.77509 37985 ft 484 kts 300°
2026-05-09 06:50 46.95296 50.69055 37984 ft 485 kts 300°
2026-05-09 06:50 46.98779 50.60585 37990 ft 484 kts 300°
2026-05-09 06:51 47.02237 50.52139 37992 ft 483 kts 300°
2026-05-09 06:51 47.05686 50.43685 37988 ft 482 kts 300°
2026-05-09 06:52 47.09095 50.35292 37984 ft 482 kts 300°
2026-05-09 06:52 47.12523 50.26823 37978 ft 482 kts 300°
2026-05-09 06:53 47.15939 50.18352 37980 ft 481 kts 300°
2026-05-09 06:53 47.19344 50.09876 37985 ft 482 kts 300°
2026-05-09 06:54 47.22745 50.01374 37989 ft 483 kts 300°
2026-05-09 06:54 47.26148 49.92837 37998 ft 484 kts 300°
2026-05-09 06:55 47.29541 49.84295 37992 ft 481 kts 300°
2026-05-09 06:55 47.32879 49.75859 37987 ft 481 kts 300°
2026-05-09 06:56 47.36252 49.67302 37986 ft 483 kts 300°
2026-05-09 06:56 47.39618 49.58733 37991 ft 482 kts 299°
2026-05-09 06:57 47.42963 49.50184 37988 ft 479 kts 299°
2026-05-09 06:57 47.46301 49.41623 37991 ft 482 kts 300°
2026-05-09 06:58 47.49645 49.33012 37987 ft 482 kts 299°
2026-05-09 06:58 47.52974 49.24413 37987 ft 480 kts 299°
2026-05-09 06:59 47.56288 49.15820 37991 ft 481 kts 299°
2026-05-09 06:59 47.59608 49.07182 37998 ft 483 kts 299°
2026-05-09 07:00 47.62917 48.98541 37995 ft 480 kts 299°
2026-05-09 07:00 47.66201 48.89934 37987 ft 480 kts 299°
2026-05-09 07:01 47.69467 48.81344 37992 ft 482 kts 299°
2026-05-09 07:01 47.72751 48.72678 37992 ft 481 kts 298°
2026-05-09 07:02 47.76018 48.64023 37990 ft 479 kts 298°
2026-05-09 07:02 47.79281 48.55347 37989 ft 481 kts 299°
2026-05-09 07:03 47.82542 48.46645 37990 ft 480 kts 298°
2026-05-09 07:03 47.85787 48.37953 37991 ft 479 kts 298°
2026-05-09 07:04 47.89016 48.29273 37994 ft 480 kts 298°
2026-05-09 07:04 47.92256 48.20531 38007 ft 483 kts 298°
2026-05-09 07:05 47.95465 48.11841 37998 ft 479 kts 298°
2026-05-09 07:05 47.98674 48.03118 37996 ft 480 kts 298°
2026-05-09 07:06 48.01881 47.94369 38000 ft 481 kts 298°
2026-05-09 07:06 48.05087 47.85589 38005 ft 480 kts 298°
2026-05-09 07:07 48.08276 47.76825 38001 ft 479 kts 298°
2026-05-09 07:07 48.11458 47.68049 38002 ft 481 kts 298°
2026-05-09 07:08 48.14637 47.59247 38001 ft 480 kts 298°
2026-05-09 07:08 48.17808 47.50439 38005 ft 480 kts 298°
2026-05-09 07:09 48.20968 47.41626 38010 ft 480 kts 298°
2026-05-09 07:09 48.24128 47.32784 38012 ft 481 kts 298°
2026-05-09 07:10 48.27278 47.23935 38009 ft 479 kts 298°
2026-05-09 07:10 48.30394 47.15153 38015 ft 480 kts 298°
2026-05-09 07:11 48.33527 47.06287 38017 ft 481 kts 298°
2026-05-09 07:11 48.36659 46.97393 38020 ft 480 kts 298°
2026-05-09 07:12 48.39775 46.88510 38021 ft 480 kts 297°
2026-05-09 07:12 48.42888 46.79604 38025 ft 481 kts 298°
2026-05-09 07:13 48.45992 46.70688 38023 ft 480 kts 298°
2026-05-09 07:13 48.49083 46.61777 38022 ft 479 kts 297°
2026-05-09 07:14 48.52150 46.52902 38027 ft 480 kts 297°
2026-05-09 07:14 48.55228 46.43960 38034 ft 480 kts 297°
2026-05-09 07:15 48.58298 46.35008 38033 ft 479 kts 297°
2026-05-09 07:15 48.61356 46.26054 38036 ft 480 kts 297°
2026-05-09 07:16 48.64408 46.17088 38031 ft 479 kts 297°
2026-05-09 07:16 48.67452 46.08106 38032 ft 479 kts 297°
2026-05-09 07:17 48.70483 45.99130 38034 ft 479 kts 297°
2026-05-09 07:17 48.73507 45.90140 38053 ft 479 kts 297°
2026-05-09 07:18 48.76528 45.81122 38051 ft 479 kts 297°
2026-05-09 07:18 48.79516 45.72169 38051 ft 479 kts 297°
2026-05-09 07:19 48.82516 45.63146 38046 ft 480 kts 297°
2026-05-09 07:19 48.85512 45.54096 38044 ft 479 kts 297°
2026-05-09 07:20 48.88491 45.45061 38043 ft 479 kts 297°
2026-05-09 07:20 48.90961 45.37542 38044 ft 479 kts 297°
2026-05-09 07:21 48.93934 45.28456 38043 ft 478 kts 297°
2026-05-09 07:21 48.96881 45.19414 38041 ft 476 kts 297°
2026-05-09 07:22 48.99824 45.10348 38050 ft 478 kts 297°
2026-05-09 07:22 49.02764 45.01250 38051 ft 478 kts 297°
2026-05-09 07:23 49.05688 44.92166 38060 ft 475 kts 297°
2026-05-09 07:23 49.08587 44.83120 38058 ft 476 kts 296°
2026-05-09 07:24 49.11481 44.74055 38067 ft 477 kts 296°
2026-05-09 07:24 49.14369 44.64969 38063 ft 474 kts 296°
2026-05-09 07:25 49.17246 44.55884 38062 ft 476 kts 296°
2026-05-09 07:25 49.20121 44.46766 38069 ft 477 kts 296°
2026-05-09 07:26 49.22983 44.37650 38071 ft 474 kts 296°
2026-05-09 07:26 49.25831 44.28542 38072 ft 476 kts 296°
2026-05-09 07:27 49.28684 44.19380 38078 ft 477 kts 296°
2026-05-09 07:27 49.31525 44.10221 38070 ft 475 kts 296°
2026-05-09 07:28 49.34348 44.01081 38070 ft 475 kts 295°
2026-05-09 07:28 49.37150 43.91970 38072 ft 476 kts 295°
2026-05-09 07:29 49.39965 43.82783 38069 ft 475 kts 295°
2026-05-09 07:29 49.42768 43.73595 38071 ft 475 kts 295°
2026-05-09 07:30 49.45565 43.64387 38072 ft 476 kts 295°
2026-05-09 07:30 49.48353 43.55169 38076 ft 475 kts 295°
2026-05-09 07:31 49.51129 43.45955 38074 ft 475 kts 295°
2026-05-09 07:31 49.53899 43.36720 38065 ft 475 kts 295°
2026-05-09 07:32 49.56663 43.27469 38074 ft 475 kts 295°
2026-05-09 07:32 49.59414 43.18223 38078 ft 474 kts 295°
2026-05-09 07:33 49.63529 43.04316 38072 ft 475 kts 295°
2026-05-09 07:34 49.66237 42.95117 38070 ft 473 kts 294°
2026-05-09 07:34 49.68955 42.85851 38074 ft 473 kts 294°
2026-05-09 07:35 49.71655 42.76602 38073 ft 473 kts 294°
2026-05-09 07:35 49.74351 42.67330 38075 ft 473 kts 294°
2026-05-09 07:36 49.77037 42.58056 38076 ft 471 kts 294°
2026-05-09 07:36 49.79705 42.48807 38075 ft 471 kts 294°
2026-05-09 07:37 49.82367 42.39543 38076 ft 471 kts 294°
2026-05-09 07:37 49.85005 42.30322 38072 ft 470 kts 294°
2026-05-09 07:38 49.87645 42.21057 38069 ft 470 kts 294°
2026-05-09 07:38 49.90275 42.11791 38069 ft 469 kts 294°
2026-05-09 07:39 49.92898 42.02512 38072 ft 470 kts 293°
2026-05-09 07:39 49.95521 41.93193 38078 ft 471 kts 293°
2026-05-09 07:40 49.98125 41.83905 38083 ft 472 kts 293°
2026-05-09 07:40 50.00729 41.74581 38083 ft 469 kts 293°
2026-05-09 07:41 50.03315 41.65284 38083 ft 468 kts 293°
2026-05-09 07:41 50.05890 41.55990 38082 ft 468 kts 293°
2026-05-09 07:42 50.08460 41.46672 38079 ft 469 kts 293°
2026-05-09 07:42 50.11022 41.37344 38079 ft 468 kts 292°
2026-05-09 07:43 50.13572 41.28020 38077 ft 467 kts 292°
2026-05-09 07:43 50.16112 41.18696 38077 ft 467 kts 292°
2026-05-09 07:44 50.18647 41.09350 38081 ft 467 kts 292°
2026-05-09 07:44 50.21173 41.00000 38080 ft 467 kts 292°
2026-05-09 07:45 50.23683 40.90668 38073 ft 465 kts 292°
2026-05-09 07:45 50.26186 40.81328 38081 ft 466 kts 292°
2026-05-09 07:46 50.28682 40.71970 38087 ft 467 kts 292°
2026-05-09 07:46 50.31172 40.62600 38086 ft 466 kts 292°
2026-05-09 07:47 50.33636 40.53290 38090 ft 465 kts 292°
2026-05-09 07:47 50.36101 40.43938 38088 ft 465 kts 291°
2026-05-09 07:48 50.38565 40.34556 38089 ft 466 kts 291°
2026-05-09 07:48 50.41023 40.25152 38092 ft 466 kts 291°
2026-05-09 07:49 50.43476 40.15731 38085 ft 466 kts 291°
2026-05-09 07:49 50.45905 40.06373 38078 ft 461 kts 291°
2026-05-09 07:50 50.48321 39.97028 38086 ft 462 kts 291°
2026-05-09 07:50 50.50718 39.87719 38086 ft 462 kts 291°
2026-05-09 07:51 50.53119 39.78353 38088 ft 462 kts 291°
2026-05-09 07:51 50.55512 39.68978 38090 ft 462 kts 291°
2026-05-09 07:52 50.57896 39.59607 38083 ft 461 kts 290°
2026-05-09 07:52 50.60267 39.50242 38082 ft 460 kts 290°
2026-05-09 07:53 50.62626 39.40889 38090 ft 460 kts 290°
2026-05-09 07:53 50.64978 39.31527 38091 ft 458 kts 290°
2026-05-09 07:54 50.67309 39.22206 38097 ft 458 kts 290°
2026-05-09 07:54 50.69636 39.12862 38097 ft 458 kts 290°
2026-05-09 07:55 50.71958 39.03494 38088 ft 458 kts 290°
2026-05-09 07:55 50.74269 38.94127 38090 ft 457 kts 290°
2026-05-09 07:56 50.76564 38.84785 38085 ft 455 kts 290°
2026-05-09 07:56 50.78835 38.75501 38086 ft 455 kts 290°
2026-05-09 07:57 50.81111 38.66147 38092 ft 456 kts 290°
2026-05-09 07:57 50.83383 38.56765 38086 ft 457 kts 290°
2026-05-09 07:58 50.85649 38.47367 38090 ft 457 kts 289°
2026-05-09 07:58 50.87895 38.38005 38085 ft 454 kts 289°
2026-05-09 07:59 50.90129 38.28657 38085 ft 454 kts 289°
2026-05-09 07:59 50.92360 38.19277 38085 ft 454 kts 289°
2026-05-09 08:00 50.94570 38.09941 38083 ft 454 kts 289°
2026-05-09 08:00 50.96782 38.00555 38088 ft 454 kts 289°
2026-05-09 08:01 50.98984 37.91173 38087 ft 452 kts 289°
2026-05-09 08:01 51.01170 37.81822 38083 ft 451 kts 288°
2026-05-09 08:02 51.03351 37.72447 38084 ft 453 kts 288°
2026-05-09 08:02 51.05514 37.63103 38078 ft 453 kts 288°
2026-05-09 08:03 51.07680 37.53706 38087 ft 452 kts 288°
2026-05-09 08:03 51.09836 37.44310 38086 ft 452 kts 288°
2026-05-09 08:04 51.11986 37.34901 38086 ft 452 kts 288°
2026-05-09 08:04 51.14127 37.25480 38084 ft 452 kts 288°
2026-05-09 08:05 51.16263 37.16041 38086 ft 453 kts 288°
2026-05-09 08:05 51.18377 37.06658 38083 ft 452 kts 288°
2026-05-09 08:06 51.20489 36.97244 38068 ft 451 kts 287°
2026-05-09 08:06 51.22595 36.87814 38073 ft 451 kts 287°
2026-05-09 08:07 51.24692 36.78380 38079 ft 452 kts 287°
2026-05-09 08:07 51.26788 36.68904 38091 ft 453 kts 287°
2026-05-09 08:08 51.28877 36.59411 38085 ft 453 kts 287°
2026-05-09 08:08 51.30610 36.51506 38090 ft 452 kts 287°
2026-05-09 08:09 51.33016 36.40487 38087 ft 451 kts 287°
2026-05-09 08:09 51.35073 36.31018 38086 ft 450 kts 287°
2026-05-09 08:10 51.37118 36.21562 38094 ft 450 kts 287°
2026-05-09 08:10 51.38815 36.13682 38098 ft 451 kts 287°
2026-05-09 08:11 51.40853 36.04178 38098 ft 451 kts 287°
2026-05-09 08:11 51.42886 35.94653 38103 ft 452 kts 287°
2026-05-09 08:12 51.45923 35.80348 38094 ft 452 kts 287°
2026-05-09 08:12 51.47936 35.70817 38092 ft 450 kts 287°
2026-05-09 08:13 51.49940 35.61291 38084 ft 451 kts 287°
2026-05-09 08:13 51.51931 35.51787 38091 ft 448 kts 286°
2026-05-09 08:14 51.53897 35.42360 38082 ft 448 kts 286°
2026-05-09 08:14 51.55870 35.32861 38086 ft 448 kts 286°
2026-05-09 08:15 51.57835 35.23354 38085 ft 448 kts 286°
2026-05-09 08:15 51.59791 35.13849 38085 ft 447 kts 286°
2026-05-09 08:16 51.61737 35.04350 38083 ft 448 kts 286°
2026-05-09 08:16 51.63670 34.94870 38084 ft 449 kts 286°
2026-05-09 08:17 51.65610 34.85306 38093 ft 450 kts 286°
2026-05-09 08:17 51.67545 34.75724 38085 ft 449 kts 286°
2026-05-09 08:18 51.69468 34.66159 38080 ft 448 kts 286°